| time (UTC) | temp F | wind direction | speed knots | gust knots | rain 1hr in | rain 24hr in | rain mn in | humidity % | barometer mb |
| 20260507040004 | 46 | 280 | 0.0 | 2.6 | 0.00 | 0.30 | 0.30 | 1 | 1009.9 |
| 20260507034616 | 46 | 280 | 0.0 | 1.7 | 0.00 | 0.30 | 0.30 | 1 | 1009.8 |
| 20260507033102 | 46 | 280 | 0.0 | 0.9 | 0.00 | 0.30 | 0.30 | 1 | 1009.6 |
| 20260507031557 | 46 | 281 | 0.0 | 0.9 | 0.00 | 0.30 | 0.30 | 1 | 1010.0 |
| 20260507030048 | 46 | 281 | 0.0 | 1.7 | 0.00 | 0.30 | 0.30 | 1 | 1009.7 |
| 20260507024543 | 46 | 281 | 0.9 | 2.6 | 0.00 | 0.30 | 0.30 | 1 | 1010.3 |
| 20260507023038 | 46 | 281 | 0.0 | 1.7 | 0.00 | 0.30 | 0.30 | 1 | 1009.9 |
| 20260507021534 | 46 | 280 | 0.0 | 1.7 | 0.00 | 0.30 | 0.30 | 1 | 1010.6 |
| 20260507020040 | 47 | 280 | 0.0 | 1.7 | 0.00 | 0.30 | 0.30 | 1 | 1010.4 |
| 20260507014526 | 47 | 280 | 0.0 | 0.9 | 0.00 | 0.30 | 0.30 | 1 | 1010.4 |
| 20260507013039 | 47 | 280 | 0.0 | 2.6 | 0.00 | 0.30 | 0.30 | 1 | 1010.3 |
| 20260507011517 | 47 | 280 | 0.0 | 2.6 | 0.00 | 0.30 | 0.30 | 1 | 1010.3 |
| 20260507010013 | 47 | 280 | 0.0 | 2.6 | 0.00 | 0.30 | 0.30 | 1 | 1010.1 |
| 20260507004507 | 47 | 280 | 0.0 | 1.7 | 0.00 | 0.30 | 0.30 | 1 | 1010.0 |
| 20260507003004 | 47 | 280 | 0.0 | 3.5 | 0.00 | 0.30 | 0.30 | 1 | 1009.8 |
| 20260507001600 | 47 | 261 | 0.9 | 3.5 | 0.00 | 0.30 | 0.30 | 1 | 1009.6 |
| 20260507000055 | 48 | 261 | 0.9 | 3.5 | 0.00 | 0.30 | 0.30 | 1 | 1009.4 |
| 20260506234550 | 48 | 301 | 0.9 | 4.3 | 0.00 | 0.30 | 0.30 | 1 | 1009.1 |
| 20260506233100 | 48 | 248 | 0.9 | 4.3 | 0.00 | 0.30 | 0.30 | 1 | 1009.1 |
| 20260506231542 | 48 | 293 | 2.6 | 7.0 | 0.00 | 0.31 | 0.30 | 1 | 1009.2 |
| 20260506230036 | 48 | 256 | 2.6 | 6.1 | 0.00 | 0.31 | 0.30 | 1 | 1008.9 |
| 20260506224532 | 48 | 308 | 1.7 | 6.1 | 0.00 | 0.31 | 0.30 | 1 | 1009.0 |
| 20260506223027 | 48 | 309 | 2.6 | 10.4 | 0.00 | 0.31 | 0.30 | 1 | 1008.7 |
| 20260506221523 | 48 | 350 | 3.5 | 7.8 | 0.00 | 0.31 | 0.30 | 1 | 1008.5 |
| 20260506220026 | 48 | 342 | 4.3 | 8.7 | 0.00 | 0.31 | 0.30 | 1 | 1008.3 |
| 20260506214514 | 48 | 297 | 4.3 | 10.4 | 0.00 | 0.31 | 0.30 | 1 | 1008.4 |
| 20260506213009 | 49 | 333 | 3.5 | 8.7 | 0.00 | 0.31 | 0.30 | 1 | 1008.2 |
| 20260506211506 | 49 | 305 | 2.6 | 7.8 | 0.00 | 0.31 | 0.30 | 1 | 1007.8 |
| 20260506210100 | 49 | 313 | 2.6 | 8.7 | 0.00 | 0.31 | 0.30 | 1 | 1007.5 |
| 20260506204556 | 49 | 318 | 5.2 | 10.4 | 0.01 | 0.31 | 0.30 | 1 | 1007.2 |
| 20260506203052 | 49 | 315 | 3.5 | 8.7 | 0.01 | 0.31 | 0.30 | 1 | 1007.0 |
| 20260506201547 | 49 | 298 | 2.6 | 7.8 | 0.02 | 0.39 | 0.30 | 1 | 1006.5 |
| 20260506200046 | 50 | 284 | 3.5 | 7.8 | 0.03 | 0.39 | 0.30 | 1 | 1006.4 |
| 20260506194544 | 51 | 304 | 4.3 | 8.7 | 0.02 | 0.38 | 0.28 | 1 | 1006.3 |
| 20260506193033 | 51 | 288 | 3.5 | 9.6 | 0.02 | 0.38 | 0.28 | 1 | 1006.3 |
| 20260506191529 | 51 | 257 | 1.7 | 5.2 | 0.01 | 0.37 | 0.28 | 1 | 1005.9 |
| 20260506190024 | 51 | 296 | 1.7 | 6.1 | 0.00 | 0.36 | 0.27 | 1 | 1005.7 |
| 20260506184519 | 52 | 247 | 1.7 | 8.7 | 0.00 | 0.36 | 0.27 | 1 | 1005.6 |
| 20260506183015 | 52 | 277 | 2.6 | 8.7 | 0.01 | 0.36 | 0.27 | 1 | 1005.5 |
| 20260506181516 | 52 | 274 | 4.3 | 9.6 | 0.01 | 0.37 | 0.27 | 1 | 1005.1 |
| 20260506180014 | 54 | 267 | 3.5 | 7.0 | 0.01 | 0.37 | 0.27 | 1 | 1005.0 |
| 20260506174501 | 55 | 280 | 2.6 | 8.7 | 0.01 | 0.37 | 0.27 | 1 | 1004.5 |
| 20260506173111 | 58 | 315 | 5.2 | 9.6 | 0.00 | 0.36 | 0.26 | 1 | 1004.4 |
| 20260506171557 | 60 | 300 | 3.5 | 6.1 | 0.00 | 0.36 | 0.26 | 1 | 1004.0 |
| 20260506170059 | 60 | 277 | 3.5 | 7.8 | 0.00 | 0.36 | 0.26 | 1 | 1004.0 |
| 20260506164554 | 60 | 255 | 1.7 | 6.1 | 0.00 | 0.36 | 0.26 | 1 | 1004.1 |
| 20260506163042 | 60 | 245 | 1.7 | 8.7 | 0.01 | 0.36 | 0.26 | 1 | 1004.0 |
| 20260506161535 | 59 | 242 | 3.5 | 7.8 | 0.02 | 0.36 | 0.26 | 1 | 1003.9 |
| 20260506160030 | 59 | 251 | 1.7 | 8.7 | 0.03 | 0.36 | 0.26 | 1 | 1004.1 |
| 20260506154526 | 59 | 267 | 0.9 | 6.1 | 0.04 | 0.36 | 0.26 | 1 | 1004.2 |
| 20260506153021 | 59 | 274 | 1.7 | 8.7 | 0.03 | 0.35 | 0.25 | 1 | 1004.0 |
| 20260506151523 | 59 | 214 | 2.6 | 7.0 | 0.03 | 0.34 | 0.24 | 1 | 1004.4 |
| 20260506150018 | 59 | 242 | 0.9 | 6.1 | 0.02 | 0.33 | 0.23 | 1 | 1004.1 |
| 20260506144513 | 59 | 171 | 1.7 | 5.2 | 0.02 | 0.32 | 0.22 | 1 | 1004.1 |
| 20260506143010 | 58 | 26 | 0.0 | 2.6 | 0.03 | 0.32 | 0.22 | 1 | 1004.1 |
| 20260506141505 | 58 | 26 | 2.6 | 4.3 | 0.04 | 0.31 | 0.21 | 1 | 1004.1 |
| 20260506140001 | 57 | 348 | 0.9 | 2.6 | 0.07 | 0.31 | 0.21 | 1 | 1004.2 |
| 20260506134556 | 57 | 348 | 0.0 | 1.7 | 0.10 | 0.30 | 0.20 | 1 | 1004.3 |
| 20260506133103 | 57 | 221 | 0.9 | 2.6 | 0.12 | 0.28 | 0.19 | 1 | 1004.6 |
| 20260506131548 | 57 | 221 | 0.0 | 2.6 | 0.12 | 0.27 | 0.17 | 1 | 1005.0 |
| 20260506130044 | 57 | 221 | 0.9 | 4.3 | 0.10 | 0.24 | 0.14 | 1 | 1005.1 |
| 20260506124541 | 57 | 173 | 1.7 | 5.2 | 0.07 | 0.20 | 0.10 | 1 | 1005.2 |
| 20260506123041 | 56 | 218 | 0.9 | 4.3 | 0.04 | 0.17 | 0.07 | 1 | 1004.8 |
| 20260506121531 | 55 | 94 | 0.0 | 1.7 | 0.03 | 0.18 | 0.05 | 1 | 1004.6 |
| 20260506120036 | 55 | 90 | 0.9 | 2.6 | 0.02 | 0.17 | 0.04 | 1 | 1004.6 |
| 20260506114525 | 54 | 89 | 0.0 | 0.9 | 0.01 | 0.16 | 0.03 | 1 | 1005.1 |
| 20260506113019 | 54 | 89 | 0.0 | 0.9 | 0.01 | 0.16 | 0.03 | 1 | 1005.1 |
| 20260506111515 | 54 | 89 | 0.0 | 1.7 | 0.01 | 0.15 | 0.02 | 1 | 1005.1 |
| 20260506110010 | 54 | 89 | 0.0 | 0.9 | 0.01 | 0.15 | 0.02 | 1 | 1005.0 |
| 20260506104505 | 54 | 88 | 0.0 | 0.9 | 0.01 | 0.15 | 0.02 | 1 | 1005.1 |
| 20260506103004 | 54 | 88 | 0.0 | 0.9 | 0.02 | 0.15 | 0.02 | 1 | 1005.1 |
| 20260506101557 | 54 | 88 | 0.0 | 0.9 | 0.01 | 0.14 | 0.01 | 1 | 1004.8 |
| 20260506100054 | 54 | 88 | 0.0 | 1.7 | 0.01 | 0.14 | 0.01 | 1 | 1004.6 |
| 20260506094549 | 54 | 88 | 0.0 | 1.7 | 0.01 | 0.14 | 0.01 | 1 | 1004.7 |
| 20260506093048 | 54 | 88 | 0.0 | 1.7 | 0.00 | 0.13 | 0.00 | 1 | 1004.7 |
| 20260506091541 | 54 | 88 | 0.0 | 3.5 | 0.00 | 0.13 | 0.00 | 1 | 1004.9 |
| 20260506090035 | 55 | 88 | 1.7 | 2.6 | 0.00 | 0.13 | 0.00 | 1 | 1004.9 |
| 20260506084532 | 55 | 88 | 0.0 | 1.7 | 0.00 | 0.13 | 0.00 | 1 | 1005.3 |
| 20260506083026 | 55 | 88 | 0.0 | 1.7 | 0.00 | 0.13 | 0.00 | 1 | 1005.4 |
| 20260506081522 | 55 | 88 | 0.0 | 1.7 | 0.00 | 0.13 | 0.00 | 1 | 1005.2 |
| 20260506073009 | 55 | 88 | 0.0 | 1.7 | 0.00 | 0.13 | 0.00 | 1 | 1005.1 |
| 20260506071507 | 55 | 88 | 0.0 | 5.2 | 0.00 | 0.13 | 0.00 | 1 | 1005.1 |
| 20260506070117 | 55 | 101 | 0.0 | 2.6 | 0.00 | 0.13 | 0.00 | 1 | 1005.2 |
| 20260506061546 | 55 | 106 | 0.0 | 7.8 | 0.00 | 0.13 | 0.00 | 1 | 1005.8 |
| 20260506044524 | 56 | 73 | 0.9 | 4.3 | 0.00 | 0.13 | 0.00 | 1 | 1006.9 |
| 20260506043017 | 56 | 86 | 1.7 | 5.2 | 0.00 | 0.13 | 0.00 | 1 | 1006.8 |
| 20260506041510 | 56 | 109 | 0.9 | 5.2 | 0.00 | 0.13 | 0.13 | 1 | 1006.9 |